Horyu-4
1 41340U 16012D 19311.38815435 .00000459 00000-0 28121-4 0 9990
2 41340 31.0055 312.1821 0013969 95.1335 265.0895 15.01352130204327
OUFTI-1
1 41458U 16025C 19310.71579579 .00001107 00000-0 60364-4 0 9992
2 41458 98.1004 44.7371 0164307 242.5732 115.8701 15.06149726193791
e-st@r-II
1 41459U 16025D 19311.69706653 .00000483 00000-0 29214-4 0 9991
2 41459 98.0972 45.3437 0165504 240.7711 117.6876 15.05760921193914
AAUSAT4
1 41460U 16025E 19311.68968863 .00001818 00000-0 94357-4 0 9998
2 41460 98.0944 46.9508 0155620 232.0595 126.6516 15.07780468194061
LO-87
1 41557U 16033B 19311.62324356 .00001193 00000-0 46983-4 0 9999
2 41557 97.4141 38.2877 0014541 150.6861 209.5197 15.27509063191751
NuSat2
1 41558U 16033C 19311.61139760 .00001339 00000-0 49494-4 0 9994
2 41558 97.4175 39.7888 0013586 149.8049 210.3977 15.29431218191825
Lapan A3
1 41603U 16040E 19311.73613236 .00000187 00000-0 11882-4 0 9991
2 41603 97.3433 6.8070 0011708 261.7516 196.9512 15.19762325187315
Swayam
1 41607U 16040J 19310.62187244 .00001334 00000-0 58549-4 0 9993
2 41607 097.3499 009.9416 0011728 253.2788 106.7162 15.23626202187338
Pratham
1 41783U 16059A 19311.58373015 .00000042 00000-0 17363-4 0 9991
2 41783 98.0508 7.9052 0032339 298.7786 61.0169 14.63018703166295
AlSat 1N
1 41789U 16059G 19311.72451645 .00000073 00000-0 22954-4 0 9995
2 41789 98.0530 10.3505 0026905 286.9513 72.8735 14.64273763166431
ScatSat
1 41790U 16059H 19311.71578252 .00000011 00000-0 13702-4 0 9993
2 41790 98.1931 353.2571 0004274 243.5067 116.5685 14.50893088164924
TY-1
1 41844U 16066D 19311.68945142 .00000749 00000-0 33311-4 0 9999
2 41844 97.4064 317.4048 0016484 52.8859 58.3171 15.24478604166324
Pegasus-1
1 41846U 16066F 19310.54118984 .00000229 00000-0 44947-4 0 9991
2 41846 98.6960 352.8793 0367509 179.4567 180.7094 14.37643636156799
CAS-2T
1 41847U 16066G 19311.13710649 .00000037 00000-0 15854-4 0 9996
2 41847 98.6893 354.0050 0366091 173.8868 186.6974 14.38017195157320
EO-88
1 42017U 17008BX 19310.64408871 .00001377 00000-0 56556-4 0 9991
2 42017 97.3888 16.1958 0007240 44.3694 315.8124 15.25866799151416
nSIGHT1
1 42726U 98067MF 19311.22155749 .00044099 00000-0 25374-3 0 9991
2 42726 51.6325 301.8052 0005294 28.7951 331.3341 15.78244560140113
CAS-4B
1 42759U 17034B 19311.73144991 .00000097 00000-0 19437-4 0 9999
2 42759 43.0170 170.6143 0010598 61.6145 53.2849 15.09675749132305
CAS-4A
1 42761U 17034D 19311.48020287 .00000251 00000-0 28761-4 0 9997
2 42761 43.0169 171.4383 0011111 60.8934 7.1576 15.09754840132260
UCLSat
1 42765U 17036A 19311.13846964 .00001154 00000-0 51915-4 0 9993
2 42765 97.3345 6.0110 0013124 92.5749 267.6990 15.23014807131995
NIUSat
1 42766U 17036B 19310.60205596 .00000890 00000-0 42656-4 0 9993
2 42766 097.3341 003.5551 0017311 087.0359 273.2858 15.21324858131658
LituanicaSAT 2
1 42768U 17036D 19311.63100892 .00001751 00000-0 76649-4 0 9998
2 42768 97.3387 6.1918 0016598 82.5687 277.7435 15.23242560131916
Aalto 1
1 42775U 17036L 19311.39795046 .00000712 00000-0 34574-4 0 9997
2 42775 97.3325 4.6752 0015645 84.2564 276.0455 15.21517425131759
URSA MAIOR
1 42776U 17036M 19311.27999447 .00000801 00000-0 38356-4 0 9997
2 42776 97.3336 4.7561 0015462 84.5985 275.7014 15.21666732131740
Max Valier Sat
1 42778U 17036P 19311.39675946 .00000910 00000-0 42496-4 0 9998
2 42778 97.3380 5.8241 0014031 87.9380 272.3463 15.22232845131796
Pegasus
1 42784U 17036V 19311.38376525 .00001074 00000-0 48876-4 0 9995
2 42784 97.3349 6.0239 0013712 92.5350 267.7457 15.22747354131823
NUDATSat
1 42787U 17036Y 19311.68148243 .00001964 00000-0 84240-4 0 9998
2 42787 97.3373 7.2425 0013071 87.3795 272.8923 15.23839746131762
SUCHAI 1
1 42788U 17036Z 19310.62789807 .00001251 00000-0 55714-4 0 9992
2 42788 97.3356 5.6853 0013264 94.0100 266.2653 15.23206650131804
SKCUBE
1 42789U 17036AA 19310.58794918 .00001150 00000-0 51631-4 0 9999
2 42789 097.3351 005.5593 0013146 094.2527 266.0213 15.23086803131710
VZLUSAT 1
1 42790U 17036AB 19310.15848851 .00001560 00000-0 67534-4 0 9994
2 42790 097.3370 005.7512 0012655 094.4688 265.7995 15.23820339131689
VENTA 1
1 42791U 17036AC 19310.29834141 .00001121 00000-0 50382-4 0 9993
2 42791 097.3349 005.3266 0012777 095.5057 264.7637 15.23091470131661
Robusta 1B
1 42792U 17036AD 19310.63430422 .00001153 00000-0 51493-4 0 9995
2 42792 97.3352 5.7895 0012723 94.5997 265.6694 15.23265237131747
D-SAT
1 42794U 17036AF 19311.60088863 .00000276 00000-0 29203-4 0 9992
2 42794 97.5234 349.9364 0127121 29.2187 331.6065 14.91162748129480
TechnoSat
1 42829U 17042E 19311.48448626 .00000115 00000-0 16989-4 0 9990
2 42829 97.5448 198.3192 0013089 312.6016 47.4098 14.91019316126069
QIKCOM-1
1 42983U 98067NF 19311.60147919 .00003581 00000-0 50117-4 0 9993
2 42983 51.6401 347.3637 0003567 306.4413 53.6251 15.59770189115483
AO-91
1 43017U 17073E 19311.30492195 .00000767 00000-0 64472-4 0 9998
2 43017 97.7221 227.1193 0259055 57.4204 305.1738 14.78680335106186
EcAMSat
1 43019U 98067NG 19311.51873000 .00006722 00000-0 78801-4 0 9991
2 43019 51.6414 340.1181 0003743 290.3217 69.7375 15.62853889197895
PICSAT
1 43132U 18004X 19311.62047185 .00001243 00000-0 54452-4 0 9998
2 43132 97.4747 19.0709 0011210 113.4585 246.7832 15.23870472101116
AO-92
1 43137U 18004AC 19311.23067779 .00000992 00000-0 44263-4 0 9990
2 43137 97.4735 18.6192 0010770 116.0635 244.1712 15.23695500101042
TianYi 2
1 43155U 18008A 19311.70853331 .00000359 00000-0 25046-4 0 9998
2 43155 97.4739 21.1782 0017289 190.5467 268.6702 15.11314634 99276
Zhou Enlai
1 43156U 18008B 19311.73537758 .00001165 00000-0 73734-4 0 9997
2 43156 97.4788 21.0786 0014547 187.7816 270.3107 15.10834019 99243
TianYi 6
1 43158U 18008D 19311.69915245 .00000606 00000-0 40641-4 0 9995
2 43158 97.4729 20.3682 0013642 186.0919 337.5152 15.10399680 99198
S-Net G
1 43186U 18014G 19311.56186743 .00000760 00000-0 71574-4 0 9992
2 43186 97.7009 217.8766 0009435 247.6655 112.3567 14.96704585 96356
S-Net H
1 43187U 18014H 19311.56168399 .00000759 00000-0 71527-4 0 9996
2 43187 97.7007 217.8611 0009446 247.5974 112.4247 14.96704598 96359
S-Net J
1 43188U 18014J 19311.49465660 .00000764 00000-0 71970-4 0 9998
2 43188 97.7010 217.8167 0009450 247.9905 112.0313 14.96704155 96341
S-Net K
1 43189U 18014K 19311.42815336 .00000773 00000-0 72687-4 0 9997
2 43189 97.7007 217.7264 0009429 248.2284 111.7935 14.96703939 94887
FMN 1
1 43192U 18015A 19311.72406872 .00002013 00000-0 83950-4 0 9990
2 43192 97.4172 77.8674 0016966 149.1987 318.3273 15.24736181 97952
Shaonian Xing
1 43199U 18015H 19311.75726510 .00001427 00000-0 59635-4 0 9995
2 43199 97.3959 76.7200 0017616 159.6736 306.5263 15.25128035 98015
1KUNS-PF
1 43466U 98067NP 19311.53390625 .00030608 00000-0 23020-3 0 9998
2 43466 51.6359 331.8005 0002493 26.0865 334.0259 15.72272120 85186
UBAKUSAT
1 43467U 98067NQ 19311.49805469 .00015326 00000-0 15077-3 0 9994
2 43467 51.6369 340.5951 0000989 295.1441 64.9452 15.66213094 85072
Irazu
1 43468U 98067NR 19311.28391882 .00060679 00000-0 34110-3 0 9991
2 43468 51.6363 325.5528 0003375 39.8554 320.2695 15.78639273185230
EnduroSat One
1 43551U 98067NZ 19310.58401212 .00019272 00000-0 18086-3 0 9992
2 43551 51.6370 347.2402 0005616 335.6442 24.4288 15.67186547 75133
EQUISat
1 43552U 98067PA 19311.34430499 .00016440 00000-0 16861-3 0 9990
2 43552 51.6388 346.3655 0005828 332.6536 27.4152 15.65086589 75179
